Flag for India Weather past 2 weeks in Navi Mumbai, Maharashtra, India

Now
84 °F

Scattered clouds.


Feels Like: 91 °F
Forecast: 75 / 89 °F
Wind: 9 mph from West

Location: Mumbai / Santacruz

Current Time: Sep 2, 2015 at 7:09:29 PM

Latest Report: Sep 2, 2015 at 6:40 PM


Visibility: 2 mi

Pressure: 29.71 "Hg

Humidity: 70%

Dew point: 73 °F

Location of Navi MumbaiLocation

Historic Weather in Navi Mumbai — Graph

°F

Navi Mumbai temperature yesterday

Maximum temperature yesterday: 88 °F (at 12:10 PM)
Minimum temperature yesterday: 79 °F (at 3:10 AM)
Average temperature yesterday: 84 °F

Past Weeks' High & Low Weather Summary

 TemperatureHumidityPressure
High88 °F (Aug 19, 12:10 PM)94% (Aug 23, 6:40 AM)29.86 "Hg (Aug 23, 6:40 AM)
Low77 °F (Sep 2, 5:10 AM)62% (Aug 21, 3:40 PM)29.68 "Hg (Aug 26, 4:10 PM)
Average83 °F81%29.77 "Hg
* Reported Aug 18 5:40 PM — Sep 2 5:40 PM, Navi Mumbai, Weather by CustomWeather, © 2015

Note: Actual official high and low records may vary slightly from our data, if they occured in-between our weather recording intervals... More about our weather records

Advertising

Navi Mumbai weather history for previous 24 hours

 ConditionsComfort  
Time TempWeatherWind HumidityBarometerVisibility
5:40 PM
Wed, Sep 2
86 °FScattered clouds.12 mph70%29.71 "Hg2 mi
5:10 PM84 °FScattered clouds.10 mph74%29.71 "Hg2 mi
4:40 PM86 °FScattered clouds.12 mph66%29.71 "Hg3 mi
4:10 PM86 °FScattered clouds.12 mph70%29.71 "Hg3 mi
3:40 PM86 °FScattered clouds.14 mph70%29.71 "Hg3 mi
3:10 PM86 °FScattered clouds.14 mph70%29.71 "Hg3 mi
2:40 PM86 °FScattered clouds.12 mph70%29.71 "Hg3 mi
2:10 PM86 °FScattered clouds.12 mph75%29.71 "Hg3 mi
1:40 PM86 °FScattered clouds.9 mph75%29.74 "Hg3 mi
1:10 PM84 °FBroken clouds.5 mph79%29.74 "Hg3 mi
12:40 PM82 °FBroken clouds.6 mph84%29.77 "Hg3 mi
12:10 PM82 °FBroken clouds.7 mph79%29.77 "Hg3 mi
11:10 AM82 °FLight rain. Broken clouds.7 mph79%29.77 "Hg2 mi
10:40 AM84 °FBroken clouds.5 mph79%29.77 "Hg2 mi
10:10 AM82 °FBroken clouds.6 mph84%29.77 "Hg2 mi
9:40 AM81 °FBroken clouds.7 mph84%29.80 "Hg2 mi
8:40 AM81 °FScattered clouds.7 mph84%29.77 "Hg2 mi
7:40 AM79 °FBroken clouds.6 mph89%29.74 "Hg1 mi
7:10 AM79 °FLight rain. Broken clouds.5 mph89%29.74 "Hg1 mi
6:40 AM79 °FScattered showers. Partly cloudy.6 mph89%29.74 "Hg1 mi
6:10 AM79 °FScattered showers. Partly cloudy.3 mph84%29.74 "Hg1 mi
5:40 AM77 °FPartly cloudy.6 mph89%29.74 "Hg1 mi
5:10 AM77 °FPartly cloudy.6 mph89%29.71 "Hg1 mi
4:10 AM81 °FPassing clouds.6 mph84%29.71 "Hg2 mi
3:10 AM81 °FPassing clouds.3 mph79%29.71 "Hg2 mi
2:40 AM81 °FPassing clouds.5 mph74%29.74 "Hg2 mi
2:10 AM82 °FPassing clouds.6 mph70%29.74 "Hg2 mi
1:40 AM81 °FPassing clouds.10 mph79%29.74 "Hg2 mi
1:10 AM81 °FPassing clouds.3 mph84%29.74 "Hg2 mi
12:40 AM82 °FPassing clouds.3 mph84%29.74 "Hg2 mi
12:10 AM82 °FPassing clouds.3 mph79%29.77 "Hg2 mi
11:10 PM
Tue, Sep 1
82 °FPassing clouds.5 mph79%29.77 "Hg2 mi
10:40 PM82 °FPartly cloudy.3 mph84%29.77 "Hg2 mi
10:10 PM82 °FPartly cloudy.5 mph84%29.77 "Hg2 mi
9:40 PM82 °FPartly cloudy.5 mph79%29.77 "Hg2 mi
9:10 PM82 °FPartly cloudy.6 mph79%29.77 "Hg2 mi
8:40 PM84 °FPassing clouds.7 mph74%29.77 "Hg2 mi
8:10 PM84 °FPassing clouds.7 mph74%29.77 "Hg3 mi
7:40 PM84 °FPassing clouds.8 mph74%29.74 "Hg3 mi
Weather by CustomWeather, © 2015

See weather overviewHow to use our weather pages